WAT5602 KSTL-KORF

Flight info

Callsign WAT5602
Flight time 1h 33m
Altitude 35000
Route PLESS5 DENNI PXV IIU STEWS BKW DRAIK
Aircraft B721/M-SDFGHRWY/C

Departure

Time 2026-04-25 19:26
Airport St. Louis Lambert International Airport (KSTL)

Arrival

Time 2026-04-25 20:59
Airport Norfolk International Airport (KORF)
Time Latitude Longitude Altitude Speed Heading
2026-04-25 19:22 38.75223 -90.37826 548 ft 0 kts 71°
2026-04-25 19:24 38.75259 -90.37782 550 ft 12 kts 38°
2026-04-25 19:25 38.75131 -90.37395 543 ft 75 kts 123°
2026-04-25 19:25 38.74703 -90.36533 548 ft 149 kts 122°
2026-04-25 19:25 38.74051 -90.35214 916 ft 183 kts 122°
2026-04-25 19:26 38.73313 -90.33778 1699 ft 195 kts 123°
2026-04-25 19:26 38.72562 -90.32313 2670 ft 198 kts 122°
2026-04-25 19:26 38.71793 -90.30814 3653 ft 199 kts 123°
2026-04-25 19:26 38.70932 -90.29234 4123 ft 227 kts 125°
2026-04-25 19:27 38.69965 -90.27561 5043 ft 237 kts 126°
2026-04-25 19:27 38.69620 -90.26987 5292 ft 244 kts 127°
2026-04-25 19:27 38.67729 -90.23812 6528 ft 275 kts 123°
2026-04-25 19:27 38.66657 -90.21752 7728 ft 274 kts 123°
2026-04-25 19:28 38.65621 -90.19672 8832 ft 274 kts 116°
2026-04-25 19:28 38.65192 -90.17281 9786 ft 275 kts 94°
2026-04-25 19:28 38.65104 -90.14754 10715 ft 279 kts 91°
2026-04-25 19:28 38.65018 -90.12199 11570 ft 284 kts 98°
2026-04-25 19:29 38.64577 -90.09592 12019 ft 306 kts 107°
2026-04-25 19:29 38.63730 -90.06857 12336 ft 331 kts 116°
2026-04-25 19:29 38.62490 -90.04194 12942 ft 345 kts 124°
2026-04-25 19:29 38.61085 -90.01490 13664 ft 355 kts 122°
2026-04-25 19:30 38.59759 -89.98640 14294 ft 368 kts 119°
2026-04-25 19:30 38.58565 -89.95594 14995 ft 377 kts 115°
2026-04-25 19:30 38.57514 -89.92378 15704 ft 385 kts 111°
2026-04-25 19:30 38.57066 -89.90841 16031 ft 388 kts 110°
2026-04-25 19:31 38.56323 -89.88112 16602 ft 393 kts 108°
2026-04-25 19:31 38.55441 -89.84684 17307 ft 399 kts 108°
2026-04-25 19:31 38.54581 -89.81210 17990 ft 404 kts 107°
2026-04-25 19:31 38.53695 -89.77615 18646 ft 409 kts 107°
2026-04-25 19:32 38.52784 -89.74017 19301 ft 414 kts 108°
2026-04-25 19:32 38.51829 -89.70398 19925 ft 419 kts 109°
2026-04-25 19:32 38.50831 -89.66769 20548 ft 423 kts 109°
2026-04-25 19:32 38.50488 -89.65552 20737 ft 424 kts 110°
2026-04-25 19:33 38.48699 -89.59387 21658 ft 432 kts 110°
2026-04-25 19:33 38.47598 -89.55690 22189 ft 436 kts 111°
2026-04-25 19:33 38.46473 -89.51941 22708 ft 440 kts 111°
2026-04-25 19:33 38.45336 -89.48153 23207 ft 444 kts 111°
2026-04-25 19:34 38.44189 -89.44331 23690 ft 448 kts 111°
2026-04-25 19:34 38.43030 -89.40449 24158 ft 452 kts 110°
2026-04-25 19:34 38.41883 -89.36584 24603 ft 456 kts 110°
2026-04-25 19:34 38.40702 -89.32579 25040 ft 460 kts 111°
2026-04-25 19:35 38.39543 -89.28638 25451 ft 463 kts 111°
2026-04-25 19:35 38.38370 -89.24655 25854 ft 467 kts 111°
2026-04-25 19:35 38.37179 -89.20620 26241 ft 470 kts 111°
2026-04-25 19:35 38.35984 -89.16594 26627 ft 473 kts 111°
2026-04-25 19:36 38.34763 -89.12502 26999 ft 476 kts 111°
2026-04-25 19:36 38.33543 -89.08427 27353 ft 479 kts 112°
2026-04-25 19:36 38.32308 -89.04304 27739 ft 481 kts 112°
2026-04-25 19:36 38.31074 -89.00183 28204 ft 480 kts 112°
2026-04-25 19:37 38.30135 -88.97052 28566 ft 480 kts 112°
2026-04-25 19:37 38.28888 -88.92898 29022 ft 479 kts 112°
2026-04-25 19:37 38.27724 -88.89017 29427 ft 478 kts 112°
2026-04-25 19:38 38.26606 -88.85298 29816 ft 478 kts 112°
2026-04-25 19:38 38.25371 -88.81208 30228 ft 477 kts 112°
2026-04-25 19:38 38.24134 -88.77115 30584 ft 477 kts 112°
2026-04-25 19:38 38.23013 -88.73428 30880 ft 477 kts 112°
2026-04-25 19:39 38.21569 -88.68694 31254 ft 477 kts 112°
2026-04-25 19:39 38.20320 -88.64600 31592 ft 477 kts 112°
2026-04-25 19:40 38.19079 -88.60531 31916 ft 476 kts 112°
2026-04-25 19:40 38.18592 -88.58935 32044 ft 476 kts 112°
2026-04-25 19:40 38.17605 -88.55697 32283 ft 476 kts 112°
2026-04-25 19:40 38.16822 -88.53127 32464 ft 476 kts 112°
2026-04-25 19:41 38.15580 -88.49065 32728 ft 476 kts 112°
2026-04-25 19:41 38.14355 -88.45062 32996 ft 476 kts 112°
2026-04-25 19:41 38.13121 -88.41026 33263 ft 476 kts 112°
2026-04-25 19:41 38.12307 -88.38368 33441 ft 476 kts 112°
2026-04-25 19:42 38.10672 -88.33037 33802 ft 475 kts 113°
2026-04-25 19:42 38.09450 -88.29052 34032 ft 474 kts 113°
2026-04-25 19:42 38.08248 -88.25137 34247 ft 474 kts 113°
2026-04-25 19:42 38.07019 -88.21149 34469 ft 474 kts 113°
2026-04-25 19:43 38.05779 -88.17137 34694 ft 473 kts 114°
2026-04-25 19:43 38.04529 -88.13101 34856 ft 475 kts 113°
2026-04-25 19:43 38.02472 -88.06485 34931 ft 481 kts 113°
2026-04-25 19:44 37.99924 -87.98297 34943 ft 490 kts 113°
2026-04-25 19:44 37.97320 -87.89934 34945 ft 500 kts 113°
2026-04-25 19:45 37.94662 -87.81412 34950 ft 509 kts 113°
2026-04-25 19:45 37.93555 -87.76941 34945 ft 514 kts 101°
2026-04-25 19:45 37.93245 -87.72282 34947 ft 517 kts 89°
2026-04-25 19:46 37.93970 -87.62775 34950 ft 523 kts 81°
2026-04-25 19:46 37.95021 -87.53159 34948 ft 530 kts 81°
2026-04-25 19:47 37.95926 -87.43582 34947 ft 535 kts 83°
2026-04-25 19:47 37.96738 -87.33839 34945 ft 539 kts 84°
2026-04-25 19:48 37.97548 -87.23936 34945 ft 541 kts 84°
2026-04-25 19:48 37.98362 -87.14107 34946 ft 543 kts 84°
2026-04-25 19:49 37.99054 -87.05846 34944 ft 544 kts 84°
2026-04-25 19:49 37.99671 -86.98464 34940 ft 544 kts 84°
2026-04-25 19:50 38.00886 -86.83699 34934 ft 542 kts 84°
2026-04-25 19:51 38.01685 -86.73852 34934 ft 539 kts 84°
2026-04-25 19:51 38.02454 -86.64291 34935 ft 536 kts 84°
2026-04-25 19:52 38.03212 -86.54755 34935 ft 534 kts 84°
2026-04-25 19:52 38.03961 -86.45229 34935 ft 532 kts 84°
2026-04-25 19:53 38.04701 -86.35696 34935 ft 531 kts 84°
2026-04-25 19:53 38.05439 -86.26096 34933 ft 529 kts 85°
2026-04-25 19:54 38.06171 -86.16454 34935 ft 528 kts 85°
2026-04-25 19:54 38.06895 -86.06857 34935 ft 527 kts 85°
2026-04-25 19:55 38.07612 -85.97229 34935 ft 526 kts 85°
2026-04-25 19:55 38.08320 -85.87621 34935 ft 526 kts 85°
2026-04-25 19:56 38.09021 -85.78014 34935 ft 525 kts 85°
2026-04-25 19:56 38.09721 -85.68353 34935 ft 525 kts 85°
2026-04-25 19:57 38.10369 -85.58741 34935 ft 524 kts 88°
2026-04-25 19:57 38.10240 -85.49165 34936 ft 522 kts 96°
2026-04-25 19:58 38.09403 -85.39632 34935 ft 521 kts 99°
2026-04-25 19:58 38.08427 -85.30117 34933 ft 521 kts 99°
2026-04-25 19:59 38.07581 -85.20647 34935 ft 521 kts 98°
2026-04-25 19:59 38.06842 -85.11188 34938 ft 520 kts 97°
2026-04-25 20:00 38.06124 -85.01679 34943 ft 520 kts 98°
2026-04-25 20:00 38.05380 -84.92153 34945 ft 520 kts 98°
2026-04-25 20:01 38.04230 -84.78014 34945 ft 520 kts 98°
2026-04-25 20:01 38.03455 -84.68601 34945 ft 520 kts 98°
2026-04-25 20:02 38.02674 -84.59170 34945 ft 520 kts 99°
2026-04-25 20:02 38.01883 -84.49732 34945 ft 520 kts 99°
2026-04-25 20:03 38.01095 -84.40486 34945 ft 520 kts 99°
2026-04-25 20:03 38.00285 -84.31079 34943 ft 520 kts 100°
2026-04-25 20:04 37.99484 -84.21844 34944 ft 520 kts 100°
2026-04-25 20:04 37.98650 -84.12289 34949 ft 519 kts 100°
2026-04-25 20:05 37.97799 -84.02681 34953 ft 519 kts 100°
2026-04-25 20:05 37.96945 -83.93134 34955 ft 519 kts 100°
2026-04-25 20:06 37.96088 -83.83606 34954 ft 519 kts 100°
2026-04-25 20:06 37.95219 -83.74004 34954 ft 519 kts 100°
2026-04-25 20:07 37.94353 -83.64528 34954 ft 519 kts 100°
2026-04-25 20:07 37.93465 -83.54937 34954 ft 519 kts 100°
2026-04-25 20:08 37.92593 -83.45537 34942 ft 519 kts 100°
2026-04-25 20:08 37.91705 -83.36015 34944 ft 518 kts 100°
2026-04-25 20:09 37.90797 -83.26489 34942 ft 516 kts 101°
2026-04-25 20:09 37.89897 -83.17040 34944 ft 515 kts 101°
2026-04-25 20:10 37.88992 -83.07637 34943 ft 514 kts 101°
2026-04-25 20:10 37.88079 -82.98279 34939 ft 514 kts 101°
2026-04-25 20:11 37.87295 -82.88973 34931 ft 513 kts 97°
2026-04-25 20:11 37.86857 -82.79709 34924 ft 513 kts 96°
2026-04-25 20:12 37.86516 -82.70450 34925 ft 511 kts 96°
2026-04-25 20:12 37.86208 -82.62759 34927 ft 510 kts 96°
2026-04-25 20:13 37.85703 -82.51746 34928 ft 508 kts 96°
2026-04-25 20:13 37.85248 -82.42406 34929 ft 507 kts 97°
2026-04-25 20:14 37.84785 -82.33140 34927 ft 504 kts 97°
2026-04-25 20:14 37.84331 -82.24020 34929 ft 500 kts 97°
2026-04-25 20:15 37.83878 -82.14890 34928 ft 493 kts 97°
2026-04-25 20:15 37.83422 -82.05925 34929 ft 486 kts 97°
2026-04-25 20:16 37.82975 -81.97318 34943 ft 478 kts 97°
2026-04-25 20:16 37.82527 -81.88745 34958 ft 471 kts 98°
2026-04-25 20:17 37.82062 -81.80124 34969 ft 464 kts 98°
2026-04-25 20:17 37.81596 -81.71708 34969 ft 459 kts 98°
2026-04-25 20:18 37.81140 -81.63429 34932 ft 456 kts 97°
2026-04-25 20:18 37.80688 -81.55238 34936 ft 454 kts 97°
2026-04-25 20:19 37.80236 -81.47153 34948 ft 454 kts 97°
2026-04-25 20:19 37.79778 -81.39009 34954 ft 456 kts 97°
2026-04-25 20:20 37.79304 -81.30746 34955 ft 459 kts 98°
2026-04-25 20:20 37.78821 -81.22330 34955 ft 461 kts 97°
2026-04-25 20:21 37.78282 -81.13848 34955 ft 463 kts 101°
2026-04-25 20:21 37.76819 -81.05544 34956 ft 463 kts 112°
2026-04-25 20:22 37.74905 -80.98881 34956 ft 464 kts 116°
2026-04-25 20:22 37.71821 -80.89651 34956 ft 469 kts 117°
2026-04-25 20:23 37.69257 -80.81744 34955 ft 475 kts 115°
2026-04-25 20:23 37.66810 -80.73599 34951 ft 481 kts 114°
2026-04-25 20:24 37.64393 -80.65196 34947 ft 486 kts 113°
2026-04-25 20:24 37.61958 -80.56730 34946 ft 491 kts 114°
2026-04-25 20:25 37.59455 -80.48184 34947 ft 495 kts 114°
2026-04-25 20:25 37.56938 -80.39729 34951 ft 500 kts 114°
2026-04-25 20:26 37.54381 -80.31157 34940 ft 504 kts 114°
2026-04-25 20:26 37.51794 -80.22502 34924 ft 508 kts 114°
2026-04-25 20:27 37.49194 -80.13838 34906 ft 510 kts 114°
2026-04-25 20:27 37.46574 -80.05151 34906 ft 510 kts 114°
2026-04-25 20:28 37.43965 -79.96536 34908 ft 509 kts 114°
2026-04-25 20:28 37.41338 -79.87887 34908 ft 509 kts 114°
2026-04-25 20:29 37.38752 -79.79374 34908 ft 508 kts 114°
2026-04-25 20:29 37.36115 -79.70718 34908 ft 508 kts 114°
2026-04-25 20:30 37.33511 -79.62194 34908 ft 508 kts 114°
2026-04-25 20:30 37.30858 -79.53545 34908 ft 508 kts 114°
2026-04-25 20:31 37.28195 -79.44913 34914 ft 508 kts 114°
2026-04-25 20:31 37.25520 -79.36257 34915 ft 508 kts 114°
2026-04-25 20:32 37.22884 -79.27732 34907 ft 507 kts 114°
2026-04-25 20:32 37.20272 -79.19330 34903 ft 505 kts 114°
2026-04-25 20:33 37.17649 -79.10920 34873 ft 504 kts 114°
2026-04-25 20:33 37.15459 -79.03907 34844 ft 503 kts 114°
2026-04-25 20:34 37.12920 -78.93715 34805 ft 498 kts 102°
2026-04-25 20:34 37.12086 -78.84713 34602 ft 490 kts 94°
2026-04-25 20:35 37.11905 -78.80260 34313 ft 490 kts 93°
2026-04-25 20:35 37.11758 -78.75800 33899 ft 492 kts 93°
2026-04-25 20:35 37.11584 -78.71285 33498 ft 494 kts 94°
2026-04-25 20:35 37.11356 -78.66763 33138 ft 494 kts 95°
2026-04-25 20:36 37.11072 -78.62271 32786 ft 494 kts 96°
2026-04-25 20:36 37.10736 -78.57745 32390 ft 494 kts 97°
2026-04-25 20:36 37.10379 -78.53346 31960 ft 494 kts 97°
2026-04-25 20:36 37.10001 -78.48876 31601 ft 491 kts 97°
2026-04-25 20:37 37.09633 -78.44545 31203 ft 488 kts 97°
2026-04-25 20:37 37.09260 -78.40141 30769 ft 485 kts 97°
2026-04-25 20:37 37.08900 -78.35828 30313 ft 481 kts 97°
2026-04-25 20:37 37.08541 -78.31464 29838 ft 478 kts 97°
2026-04-25 20:38 37.08198 -78.27213 29381 ft 474 kts 97°
2026-04-25 20:38 37.07852 -78.22920 28934 ft 470 kts 97°
2026-04-25 20:38 37.07508 -78.18690 28491 ft 466 kts 97°
2026-04-25 20:38 37.07165 -78.14487 28053 ft 463 kts 97°
2026-04-25 20:39 37.06826 -78.10338 27621 ft 459 kts 97°
2026-04-25 20:39 37.06493 -78.06290 27201 ft 456 kts 97°
2026-04-25 20:39 37.06162 -78.02236 26777 ft 452 kts 97°
2026-04-25 20:39 37.05939 -77.99523 26486 ft 450 kts 97°
2026-04-25 20:40 37.05494 -77.94242 25949 ft 445 kts 97°
2026-04-25 20:40 37.05156 -77.90241 25518 ft 441 kts 97°
2026-04-25 20:40 37.04830 -77.86338 25085 ft 438 kts 97°
2026-04-25 20:40 37.04507 -77.82419 24647 ft 435 kts 97°
2026-04-25 20:41 37.04187 -77.78528 24203 ft 431 kts 97°
2026-04-25 20:41 37.03871 -77.74697 23734 ft 427 kts 97°
2026-04-25 20:41 37.03558 -77.70957 23256 ft 424 kts 97°
2026-04-25 20:41 37.03236 -77.67194 22759 ft 421 kts 97°
2026-04-25 20:42 37.02916 -77.63490 22285 ft 418 kts 97°
2026-04-25 20:42 37.02598 -77.59828 21815 ft 415 kts 96°
2026-04-25 20:42 37.02276 -77.56149 21359 ft 411 kts 96°
2026-04-25 20:42 37.01958 -77.52516 20900 ft 408 kts 96°
2026-04-25 20:43 37.01648 -77.48946 20436 ft 406 kts 96°
2026-04-25 20:43 37.01339 -77.45366 19985 ft 403 kts 96°
2026-04-25 20:43 37.01031 -77.41798 19541 ft 399 kts 96°
2026-04-25 20:43 37.00731 -77.38312 19053 ft 396 kts 96°
2026-04-25 20:44 37.00433 -77.34860 18557 ft 393 kts 96°
2026-04-25 20:44 37.00132 -77.31374 18056 ft 390 kts 96°
2026-04-25 20:44 36.99830 -77.27909 17550 ft 387 kts 96°
2026-04-25 20:44 36.99534 -77.24456 17047 ft 385 kts 96°
2026-04-25 20:45 36.99249 -77.21082 16566 ft 382 kts 96°
2026-04-25 20:45 36.98959 -77.17657 16074 ft 379 kts 96°
2026-04-25 20:45 36.98666 -77.14231 15577 ft 376 kts 96°
2026-04-25 20:45 36.98373 -77.10864 15081 ft 373 kts 97°
2026-04-25 20:46 36.98075 -77.07519 14588 ft 371 kts 97°
2026-04-25 20:46 36.97780 -77.04248 14093 ft 369 kts 97°
2026-04-25 20:46 36.97485 -77.01012 13619 ft 366 kts 97°
2026-04-25 20:46 36.97184 -76.97737 13146 ft 364 kts 97°
2026-04-25 20:47 36.96886 -76.94544 12693 ft 361 kts 98°
2026-04-25 20:47 36.96589 -76.91341 12226 ft 359 kts 98°
2026-04-25 20:47 36.96291 -76.88152 11761 ft 356 kts 98°
2026-04-25 20:47 36.95994 -76.84995 11315 ft 354 kts 98°
2026-04-25 20:48 36.95697 -76.81882 10883 ft 351 kts 98°
2026-04-25 20:48 36.95401 -76.78766 10448 ft 348 kts 98°
2026-04-25 20:48 36.95107 -76.75645 10118 ft 341 kts 98°
2026-04-25 20:48 36.94829 -76.72660 10022 ft 327 kts 98°
2026-04-25 20:49 36.94561 -76.69775 9977 ft 313 kts 98°
2026-04-25 20:49 36.94305 -76.66997 9797 ft 304 kts 98°
2026-04-25 20:49 36.94051 -76.64281 9544 ft 298 kts 98°
2026-04-25 20:49 36.93794 -76.61546 9198 ft 296 kts 98°
2026-04-25 20:50 36.93543 -76.58892 8810 ft 295 kts 98°
2026-04-25 20:50 36.93287 -76.56199 8431 ft 294 kts 98°
2026-04-25 20:50 36.93031 -76.53526 8068 ft 293 kts 98°
2026-04-25 20:50 36.92774 -76.50857 7734 ft 290 kts 98°
2026-04-25 20:51 36.92525 -76.48254 7407 ft 288 kts 98°
2026-04-25 20:51 36.92272 -76.45622 7071 ft 286 kts 98°
2026-04-25 20:51 36.92027 -76.43057 6739 ft 284 kts 98°
2026-04-25 20:51 36.91781 -76.40485 6396 ft 283 kts 98°
2026-04-25 20:52 36.91541 -76.37962 6070 ft 281 kts 98°
2026-04-25 20:52 36.91380 -76.36276 5853 ft 279 kts 98°
2026-04-25 20:52 36.91061 -76.32931 5434 ft 276 kts 98°
2026-04-25 20:52 36.90480 -76.30553 5050 ft 269 kts 127°
2026-04-25 20:53 36.88992 -76.29028 4667 ft 262 kts 160°
2026-04-25 20:53 36.87131 -76.28778 4286 ft 257 kts 192°
2026-04-25 20:53 36.85380 -76.29533 3923 ft 256 kts 203°
2026-04-25 20:53 36.83654 -76.30545 3566 ft 257 kts 206°
2026-04-25 20:54 36.81984 -76.31606 3240 ft 256 kts 207°
2026-04-25 20:54 36.80369 -76.32776 3054 ft 249 kts 216°
2026-04-25 20:54 36.78950 -76.34102 2996 ft 236 kts 207°
2026-04-25 20:54 36.77343 -76.34401 2977 ft 218 kts 166°
2026-04-25 20:55 36.76035 -76.33420 2972 ft 204 kts 134°
2026-04-25 20:55 36.75451 -76.31821 2964 ft 190 kts 90°
2026-04-25 20:55 36.75936 -76.30311 2949 ft 174 kts 40°
2026-04-25 20:55 36.77007 -76.29670 2869 ft 162 kts 10°
2026-04-25 20:56 36.78203 -76.29354 2483 ft 168 kts 13°
2026-04-25 20:56 36.79350 -76.29041 2294 ft 166 kts 10°
2026-04-25 20:56 36.80479 -76.28499 1971 ft 170 kts 34°
2026-04-25 20:56 36.81484 -76.27666 1926 ft 155 kts 37°
2026-04-25 20:57 36.82341 -76.26851 1737 ft 150 kts 41°
2026-04-25 20:57 36.83177 -76.25994 1425 ft 145 kts 41°
2026-04-25 20:57 36.83971 -76.25249 1255 ft 126 kts 39°
2026-04-25 20:57 36.84681 -76.24571 960 ft 132 kts 39°
2026-04-25 20:58 36.85422 -76.23841 943 ft 124 kts 36°
2026-04-25 20:58 36.86145 -76.23133 656 ft 128 kts 36°
2026-04-25 20:58 36.86886 -76.22432 531 ft 126 kts 34°
2026-04-25 20:58 36.87632 -76.21730 314 ft 130 kts 36°
2026-04-25 20:59 36.88354 -76.21048 133 ft 121 kts 35°
2026-04-25 20:59 36.89053 -76.20373 36 ft 117 kts 36°
2026-04-25 20:59 36.89663 -76.19792 28 ft 88 kts 37°
2026-04-25 20:59 36.90045 -76.19422 22 ft 49 kts 37°
2026-04-25 21:00 36.90229 -76.19307 18 ft 18 kts 337°
2026-04-25 21:00 36.90275 -76.19363 19 ft 9 kts 310°
2026-04-25 21:00 36.90248 -76.19481 20 ft 11 kts 217°
2026-04-25 21:01 36.90166 -76.19541 22 ft 14 kts 206°
2026-04-25 21:01 36.90065 -76.19625 24 ft 18 kts 218°
2026-04-25 21:01 36.89955 -76.19734 27 ft 20 kts 219°
2026-04-25 21:01 36.89844 -76.19858 28 ft 20 kts 234°
2026-04-25 21:02 36.89805 -76.20039 28 ft 19 kts 269°
2026-04-25 21:02 36.89764 -76.20150 29 ft 10 kts 217°
2026-04-25 21:02 36.89727 -76.20185 30 ft 2 kts 218°
2026-04-25 21:02 36.89723 -76.20190 30 ft 0 kts 218°